Location: Gleizolles
(44.4833°N, 6.7667°E)
Time: 00:20:07
(UTC+00:00)

Vanguard 2 Rocket - Pass Details

Date: 24 June 2024
Orbit: 555 x 3302 km, 32.9° (Epoch: 24 July)

Event Time Altitude Azimuth Distance (km) Brightness Sun altitude
Rises 02:41:40 0° 247° (WSW) 6,917 - -9.9°
Exits shadow 02:44:20 - 245° (WSW) 6,417 10.6 -9.6°
Reaches altitude 10° 02:46:10 10° 243° (WSW) 6,079 10.5 -9.4°
Maximum altitude 03:05:22 56° 173° (S) 3,609 9.7 -6.9°
Drops below altitude 10° 03:21:32 10° 101° (ESE) 5,227 11.4 -4.8°
Sets 03:25:03 0° 98° (E) 5,936 11.8 -4.3°
